Regional Weather Roundup
Issued by NWS Charleston, SC

Home | Current Version | Previous Version | Text Only | Print | Product List | Glossary On
Versions: 1 2 3 4 5 6 7 8 9 10 11 12 13 14 15 16 17 18 19 20 21 22 23 24 25 26 27 28 29 30 31 32 33 34 35 36 37 38 39 40 41 42 43 44 45 46 47 48 49 50
000
ASUS42 KCHS 282225
RWRCHS

REGIONAL WEATHER ROUNDUP
NATIONAL WEATHER SERVICE CHARLESTON SC
500 PM EST SUN DEC 28 2014

NOTE: "FAIR" INDICATES FEW OR NO CLOUDS BELOW 12,000 FEET WITH NO
SIGNIFICANT WEATHER AND/OR OBSTRUCTIONS TO VISIBILITY.

NOT ALL STATIONS ARE QUALITY CONTROLLED BY THE NATIONAL
WEATHER SERVICE. USE DATA WITH CAUTION...ESPECIALLY
DEWPOINT OBSERVATIONS.

SCZ027-030-031-034>040-042>050-282300-
...SOUTHEAST SOUTH CAROLINA...

CITY           SKY/WX    TMP DP  RH WIND       PRES   REMARKS
N CHARLESTON   MOCLDY    71  64  78 SW8       30.05S
WATERFRONT PRK   N/A     64 N/A N/A S5          N/A
MOUNT PLEASANT MOCLDY    70  66  88 S6        30.06R
PINOPOLIS      NOT AVBL
MONCKS CORNER  CLOUDY    72  64  78 CALM      30.04S
SUMMERVILLE    CLOUDY    72  64  78 CALM      30.05R
BEAUFORT MCAS  PTCLDY    67  62  84 SE5       30.05S
BEAUFORT ARPT  FAIR      68  64  88 S3        30.05S
HILTON HEAD IS MOCLDY    68  64  88 S5        30.07R
WALTERBORO     CLOUDY    72  61  68 CALM      30.05S
ALLENDALE      CLOUDY    73  64  73 CALM      30.03S

...SOUTHERN MIDLANDS AND PEE DEE...

CITY           SKY/WX    TMP DP  RH WIND       PRES   REMARKS
GEORGETOWN     NOT AVBL
KINGSTREE      NOT AVBL
ORANGEBURG     CLOUDY    69  61  75 W3        30.04R
BARNWELL       CLOUDY    68  63  83 CALM      30.06R
AIKEN          CLOUDY    63  63 100 W7        30.09R
MANNING        CLOUDY    70  61  73 CALM      30.04S
COLUMBIA       CLOUDY    65  62  90 W7        30.04R
SUMTER         CLOUDY    67  61  82 W8        30.02R
FLORENCE       CLOUDY    69  61  75 SW10      30.02S
MYRTLE BEACH   MOCLDY    70  61  73 SW9       30.05
N MYRTLE BEACH CLOUDY    66  61  84 SW9       30.03R

$$

GAZ063-065-086>088-099>101-113>116-118-119-134>141-150-282300-
...SOUTHEAST GEORGIA...

CITY           SKY/WX    TMP DP  RH WIND       PRES   REMARKS
SAVANNAH ARPT  MOCLDY    75  62  64 W5        30.05R
HUNTER AAF     MOCLDY    76  65  70 SW2       30.03S
FORT STEWART   MOCLDY    75  66  73 CALM      30.04R
STATESBORO     PTCLDY    72  64  74 CALM      30.05R
SYLVANIA       PTCLDY    72  65  77 CALM      30.05S
CLAXTON        FAIR      68  66  94 CALM      30.05S

...CSRA...CENTRAL AND FAR SOUTHEAST GEORGIA...

CITY           SKY/WX    TMP DP  RH WIND       PRES   REMARKS
THOMSON        CLOUDY    64  63  95 W3        30.10R
AUGUSTA-BUSH   CLOUDY    67  61  81 W8        30.05R
AUGUSTA-DANIEL MOCLDY    65  61  87 VRB3      30.06R
SWAINSBORO     CLOUDY    73  68  83 W6        30.06R
VIDALIA        MOCLDY    72  64  78 CALM      30.05S
EASTMAN        FAIR      73  68  87 CALM      30.07S
HAZLEHURST     FAIR      74  67  76 CALM      30.05S
ALMA           CLOUDY    76  62  62 SW5       30.05R
WAYCROSS       PTCLDY    76  68  77 SW6       30.07R
JESUP          MOCLDY    77  68  73 SW5       30.06R
BAXLEY         MOCLDY    75  66  73 CALM      30.04F
BRUNSWICK      CLOUDY    77  63  61 SW7       30.07R
SAINT SIMONS   MOCLDY    70  62  76 CALM      30.06S

$$

SCZ027-028-034-036>038-045-046-048>050-GAZ119-141-282300-
...LAKE AND SUPPLEMENTAL COASTAL OBSERVATIONS...

STATION/POSITION TIME  TEMP    WIND        PRES    WAVE   SWELL
                       AIR SEA DIR/SP/G            HT/PER HT/PER/DIR
                 (UTC) (F)     (DEG/KT/KT) (MB)    (FT/S) (FT/S/D)
UPR LAKE MARION  NOT AVBL
WINYAH BAY       2200   69     200/  6     1017.0S
LAKE MURRAY      2100   62     260/ 10/ 14 1016.6R
ACE BASIN NERRS  2200   64        CALM     1017.0S
FORT PULASKI     2200   65 57  180/  5/  6 1018.1R
SAPELO ISLAND    2200   71     150/  6     1018.0R

$$

ANZ835-935-AMZ111-154-330-350-352-354-370-450-454-472-282300-
...C-MAN AND BUOY OBSERVATIONS...

STATION/POSITION TIME  TEMP    WIND        PRES    WAVE   SWELL
                       AIR SEA DIR/SP/G            HT/PER HT/PER/DIR
                 (UTC) (F)     (DEG/KT/KT) (MB)    (FT/S) (FT/S/D)
BUOY 41004       2200   72 73  220/ 14/ 16 1017.6R   3/14   2/14
BUOY 41008       2200   62 59  180/  8/ 10 1017.8R   3/15   3/ 60/15
FOLLY BEACH CMAN 2200   60     210/  7/  7 1018.4R
CAPERS NEARSHORE 2100   60     230/  6/  8   N/A
FRIPP NEARSHORE  NOT AVBL


STATION/POSITION TIME  TEMP    WIND        PRES    WAVE   SWELL
                       AIR SEA DIR/SP/G            HT/PER HT/PER/DIR
                 (UTC) (F)     (DEG/KT/KT) (MB)    (FT/S) (FT/S/D)
5E ST. MARYS GA  2200      62                N/A     2/15   2/ 80/15
FRYING PAN BUOY  2200   69 68  220/  8/ 10 1018.4R   3/14   3/150/14
BUOY 41025       2200   70                 1017.0R   4/12
CAPE LOOKOUT NC  2200   62     210/  7/  9 1016.9F
BUOY 41002       2059   74 75  220/ 17/ 21 1020.1R   6/14   3/ 70/14
BUOY 41010       2200   76 77  260/  8/ 10 1020.2R   5/15   5/ 80/15
ST AUGUSTINE FL  2200   67     150/  4/  4 1019.3R


$$



USA.gov is the U.S. government's official web portal to all federal, state and local government web resources and services.